User: anonymous   Login
Location: Unspecified
(0.0000°N, 0.0000°E)
Time: 01:05:23
(UTC+00:00)
Language:

SCD-1 - Orbit

View from above orbital plane
View from above orbital plane
View from above satellite
View from above satellite

Ground track
Ground track

The orbit data is extracted from the following two-line orbital elements,

1 22490U 93009B   23081.05807203  .00000631  00000-0  12476-3 0  9990
2 22490  24.9703 305.6310 0042629 227.4792 265.7728 14.44867617590142
Epoch (UTC): 22 March 2023 01:23:37
Eccentricity: 0.0042629
inclination: 24.9703°
perigee height: 712 km
apogee height: 773 km
right ascension of ascending node: 305.6310°
argument of perigee: 227.4792°
revolutions per day: 14.44867617
mean anomaly at epoch: 265.7728°
orbit number at epoch: 59014

The dashed part of the orbit path shows where the satellite is in the earth's shadow,  

DLR